When you browse on this site, cookies collect data to enhance your experience and personalize the content and advertising you see.
Visit our Privacy Policy to learn more. By continuing to use the site, you agree to this use of cookies and data.
  • în România
  • Lista ţărilor
  • Pe 7 zile
  • Temperatura apei
  • Hartă satelitară
  • Meteo pe hartă
  • Widget-uri
  • user-avatar
    Intrare

    Meteo pe oră la Irbid

    Astăzi, 21 Noiembrie, Miercuri

    Timp Temperatura Precipitaţii Vânt Presiune Umiditate
    00:00 +19°C° 0 mm 1 m/s 715 mmHg 62%
    01:00 +18°C° 0 mm 1 m/s 715 mmHg 62%
    02:00 +18°C° 0 mm 1 m/s 714 mmHg 62%
    03:00 +18°C° 0 mm 1 m/s 714 mmHg 63%
    04:00 +16°C° 0 mm 1 m/s 714 mmHg 63%
    05:00 +16°C° 0 mm 1 m/s 714 mmHg 64%
    06:00 +18°C° 0 mm 1 m/s 714 mmHg 61%
    07:00 +19°C° 0 mm 1 m/s 714 mmHg 58%
    08:00 +19°C° 0 mm 1 m/s 714 mmHg 55%
    09:00 +20°C° 0 mm 1 m/s 714 mmHg 50%
    10:00 +20°C° 0 mm 2 m/s 714 mmHg 46%
    11:00 +21°C° 0 mm 2 m/s 715 mmHg 42%
    12:00 +22°C° 0 mm 3 m/s 714 mmHg 40%
    13:00 +22°C° 0 mm 3 m/s 714 mmHg 39%
    14:00 +22°C° 0 mm 4 m/s 713 mmHg 38%
    15:00 +21°C° 0 mm 4 m/s 713 mmHg 42%
    16:00 +21°C° 0 mm 3 m/s 713 mmHg 47%
    17:00 +20°C° 0 mm 3 m/s 713 mmHg 51%
    18:00 +19°C° 0 mm 3 m/s 713 mmHg 55%
    19:00 +19°C° 0 mm 2 m/s 713 mmHg 58%
    20:00 +18°C° 0 mm 2 m/s 713 mmHg 62%
    21:00 +18°C° 0 mm 2 m/s 713 mmHg 64%
    22:00 +18°C° 0 mm 2 m/s 713 mmHg 65%
    23:00 +18°C° 0 mm 1 m/s 712 mmHg 67%

    Mâine, 22 Noiembrie, Joi

    Timp Temperatura Precipitaţii Vânt Presiune Umiditate
    00:00 +18°C° 0 mm 1 m/s 712 mmHg 68%
    01:00 +17°C° 0 mm 2 m/s 712 mmHg 69%
    02:00 +16°C° 0 mm 2 m/s 712 mmHg 70%
    03:00 +16°C° 0 mm 1 m/s 712 mmHg 70%
    04:00 +16°C° 0 mm 1 m/s 712 mmHg 71%
    05:00 +16°C° 0 mm 1 m/s 712 mmHg 71%
    06:00 +16°C° 0 mm 1 m/s 712 mmHg 68%
    07:00 +18°C° 0 mm 1 m/s 712 mmHg 66%
    08:00 +18°C° 0 mm 1 m/s 712 mmHg 63%
    09:00 +19°C° 0 mm 2 m/s 712 mmHg 56%
    10:00 +20°C° 0 mm 2 m/s 712 mmHg 48%
    11:00 +21°C° 0 mm 3 m/s 712 mmHg 41%
    12:00 +21°C° 0 mm 3 m/s 711 mmHg 40%
    13:00 +21°C° 0 mm 4 m/s 711 mmHg 38%
    14:00 +22°C° 0 mm 4 m/s 710 mmHg 37%
    15:00 +21°C° 0.1 mm 4 m/s 710 mmHg 40%
    16:00 +20°C° 0.1 mm 3 m/s 710 mmHg 43%
    17:00 +19°C° 0.1 mm 3 m/s 710 mmHg 45%
    18:00 +19°C° 0.1 mm 2 m/s 710 mmHg 48%
    19:00 +18°C° 0.1 mm 2 m/s 711 mmHg 50%
    20:00 +18°C° 0.1 mm 2 m/s 711 mmHg 52%
    21:00 +18°C° 0 mm 1 m/s 711 mmHg 54%
    22:00 +18°C° 0 mm 1 m/s 711 mmHg 55%
    23:00 +16°C° 0 mm 1 m/s 711 mmHg 57%

    Poimâine, 23 Noiembrie, Vineri

    Timp Temperatura Precipitaţii Vânt Presiune Umiditate
    00:00 +16°C° 0 mm 1 m/s 710 mmHg 58%
    01:00 +16°C° 0 mm 1 m/s 710 mmHg 60%
    02:00 +15°C° 0 mm 1 m/s 710 mmHg 61%
    03:00 +15°C° 0 mm 1 m/s 710 mmHg 62%
    04:00 +14°C° 0 mm 1 m/s 709 mmHg 63%
    05:00 +14°C° 0 mm 1 m/s 709 mmHg 64%
    06:00 +15°C° 0.2 mm 1 m/s 710 mmHg 61%
    07:00 +15°C° 0.2 mm 1 m/s 710 mmHg 59%
    08:00 +16°C° 0.2 mm 2 m/s 710 mmHg 57%
    09:00 +16°C° 0.3 mm 2 m/s 710 mmHg 56%
    10:00 +17°C° 0.3 mm 3 m/s 710 mmHg 55%
    11:00 +17°C° 0.3 mm 3 m/s 710 mmHg 55%
    12:00 +17°C° 0.1 mm 3 m/s 710 mmHg 55%
    13:00 +17°C° 0.1 mm 3 m/s 710 mmHg 56%
    14:00 +17°C° 0.1 mm 3 m/s 709 mmHg 57%
    15:00 +17°C° 0.1 mm 3 m/s 709 mmHg 59%
    16:00 +16°C° 0.1 mm 3 m/s 709 mmHg 62%
    17:00 +16°C° 0.1 mm 2 m/s 709 mmHg 65%
    18:00 +15°C° 0.1 mm 2 m/s 709 mmHg 68%
    19:00 +15°C° 0.1 mm 2 m/s 709 mmHg 70%
    20:00 +15°C° 0.1 mm 1 m/s 710 mmHg 73%
    21:00 +14°C° 0.1 mm 1 m/s 710 mmHg 74%
    22:00 +14°C° 0.1 mm 1 m/s 710 mmHg 76%
    23:00 +13°C° 0.1 mm 1 m/s 710 mmHg 77%

    24 Noiembrie, Sâmbătă

    Timp Temperatura Precipitaţii Vânt Presiune Umiditate
    00:00 +13°C° 0.1 mm 1 m/s 709 mmHg 78%
    01:00 +13°C° 0.1 mm 1 m/s 709 mmHg 79%
    02:00 +13°C° 0.1 mm 1 m/s 709 mmHg 80%
    03:00 +12°C° 0.1 mm 1 m/s 709 mmHg 80%
    04:00 +12°C° 0.1 mm 1 m/s 709 mmHg 80%
    05:00 +12°C° 0.1 mm 1 m/s 710 mmHg 80%
    06:00 +13°C° 0 mm 1 m/s 710 mmHg 77%
    07:00 +13°C° 0 mm 1 m/s 711 mmHg 73%
    08:00 +14°C° 0 mm 1 m/s 711 mmHg 70%
    09:00 +15°C° 0 mm 2 m/s 711 mmHg 64%
    10:00 +16°C° 0 mm 2 m/s 712 mmHg 59%
    11:00 +17°C° 0 mm 2 m/s 712 mmHg 54%
    12:00 +17°C° 0 mm 2 m/s 711 mmHg 52%
    13:00 +18°C° 0 mm 2 m/s 711 mmHg 51%
    14:00 +18°C° 0 mm 2 m/s 711 mmHg 49%
    15:00 +17°C° 0.1 mm 2 m/s 711 mmHg 52%
    16:00 +17°C° 0.1 mm 2 m/s 711 mmHg 55%
    17:00 +16°C° 0.1 mm 2 m/s 711 mmHg 59%
    18:00 +16°C° 0.1 mm 2 m/s 712 mmHg 62%
    19:00 +15°C° 0.1 mm 2 m/s 712 mmHg 65%
    20:00 +15°C° 0.1 mm 1 m/s 712 mmHg 68%
    21:00 +15°C° 0 mm 1 m/s 712 mmHg 69%
    22:00 +14°C° 0 mm 1 m/s 713 mmHg 71%
    23:00 +14°C° 0 mm 1 m/s 713 mmHg 72%

    25 Noiembrie, Duminică

    Timp Temperatura Precipitaţii Vânt Presiune Umiditate
    00:00 +14°C° 0 mm 1 m/s 712 mmHg 74%
    01:00 +13°C° 0 mm 1 m/s 712 mmHg 75%
    02:00 +13°C° 0 mm 1 m/s 712 mmHg 76%
    03:00 +13°C° 0 mm 1 m/s 712 mmHg 77%
    04:00 +12°C° 0 mm 1 m/s 712 mmHg 77%
    05:00 +12°C° 0 mm 1 m/s 712 mmHg 78%
    06:00 +13°C° 0 mm 1 m/s 712 mmHg 75%
    07:00 +13°C° 0 mm 1 m/s 713 mmHg 71%
    08:00 +14°C° 0 mm 1 m/s 713 mmHg 68%
    09:00 +15°C° 0 mm 1 m/s 713 mmHg 63%
    10:00 +16°C° 0 mm 2 m/s 713 mmHg 58%
    11:00 +17°C° 0 mm 2 m/s 713 mmHg 53%
    12:00 +18°C° 0 mm 3 m/s 713 mmHg 52%
    13:00 +18°C° 0 mm 3 m/s 713 mmHg 50%
    14:00 +19°C° 0 mm 3 m/s 713 mmHg 49%
    15:00 +18°C° 0 mm 3 m/s 713 mmHg 54%
    16:00 +17°C° 0 mm 3 m/s 713 mmHg 59%
    17:00 +17°C° 0 mm 3 m/s 713 mmHg 63%
    18:00 +16°C° 0 mm 3 m/s 713 mmHg 67%
    19:00 +16°C° 0 mm 2 m/s 713 mmHg 71%
    20:00 +15°C° 0 mm 2 m/s 713 mmHg 75%
    21:00 +15°C° 0 mm 2 m/s 713 mmHg 77%
    22:00 +14°C° 0 mm 1 m/s 713 mmHg 79%
    23:00 +14°C° 0 mm 1 m/s 713 mmHg 81%

    26 Noiembrie, Luni

    Timp Temperatura Precipitaţii Vânt Presiune Umiditate
    00:00 +14°C° 0 mm 1 m/s 713 mmHg 82%
    01:00 +13°C° 0 mm 1 m/s 712 mmHg 83%
    02:00 +13°C° 0 mm 1 m/s 712 mmHg 85%
    03:00 +13°C° 0 mm 1 m/s 712 mmHg 84%
    04:00 +13°C° 0 mm 1 m/s 712 mmHg 84%
    05:00 +12°C° 0 mm 1 m/s 712 mmHg 84%
    06:00 +13°C° 0 mm 1 m/s 713 mmHg 79%
    07:00 +14°C° 0 mm 1 m/s 713 mmHg 75%
    08:00 +15°C° 0 mm 1 m/s 714 mmHg 70%
    09:00 +16°C° 0 mm 1 m/s 714 mmHg 64%
    10:00 +18°C° 0 mm 1 m/s 714 mmHg 59%
    11:00 +19°C° 0 mm 1 m/s 714 mmHg 53%
    12:00 +20°C° 0 mm 1 m/s 713 mmHg 51%
    13:00 +20°C° 0 mm 1 m/s 713 mmHg 49%
    14:00 +20°C° 0 mm 1 m/s 713 mmHg 47%
    15:00 +20°C° 0 mm 1 m/s 712 mmHg 50%
    16:00 +19°C° 0 mm 1 m/s 712 mmHg 54%
    17:00 +19°C° 0 mm 1 m/s 712 mmHg 57%
    18:00 +18°C° 0 mm 1 m/s 713 mmHg 60%
    19:00 +16°C° 0 mm 1 m/s 713 mmHg 64%
    20:00 +16°C° 0 mm 1 m/s 713 mmHg 68%
    21:00 +16°C° 0 mm 1 m/s 713 mmHg 68%
    22:00 +15°C° 0 mm 1 m/s 713 mmHg 69%
    23:00 +15°C° 0 mm 1 m/s 713 mmHg 70%
    Arată mai mult